San Jose, Costa Rica

10:36 PM CST on November 23, 2017 (GMT -0600)
Juan Santamaria International

Weather History for MROC - January, 2014

Change the Weather History Date:

Tuesday, January 14, 2014

  Actual Average Record
Temperature  
Mean Temperature 76 °F -  
Max Temperature 84 °F 80 °F 86 °F (2001)
Min Temperature 67 °F 63 °F 59 °F (1999)
Cooling Degree Days 10    
Growing Degree Days 26 (Base 50)    
Moisture  
Dew Point 57 °F    
Average Humidity 57    
Maximum Humidity 73    
Minimum Humidity 32    
Precipitation  
Precipitation 0.00 in 0.01 in - ()
Sea Level Pressure  
Sea Level Pressure 29.96 in    
Wind  
Wind Speed 9 mph ()    
Max Wind Speed 24 mph    
Max Gust Speed 24 mph    
Visibility 8.6 miles    
Events      
Averages and records for this station are not official NWS values.
T = Trace of Precipitation, MM = Missing Value Source: Averaged Metar Reports

Daily Weather History Graph

Daily Weather History Graph

Search for Another Location

Airport or City:

Trip Planner

Search our weather history database for the weather conditions in past years. The results will help you decide how hot, cold, wet, or windy it might be!

Date:

Astronomy

Jan. 14, 2014 Rise Set
Actual Time 5:58 AM CST 5:34 PM CST
Civil Twilight 5:35 AM CST 5:56 PM CST
Nautical Twilight 5:09 AM CST 6:22 PM CST
Astronomical Twilight 4:43 AM CST 6:48 PM CST
Moon 4:32 PM CST (1/14) 4:36 AM CST (1/14)
Length of Visible Light 12h 21m
Length of Day
11h 36m
Waxing Gibbous, 98% of the Moon is Illuminated
Jan 14
Waxing Gibbous
Jan 15
Full
Jan 23
Last Quarter
Jan 30
New
Feb 6
First Quarter

Hourly Weather History & Observations

Time (CST) Temp. Heat Index Dew Point Humidity Pressure Visibility Wind Dir Wind Speed Gust Speed Precip Events Conditions
12:00 AM 68 °F - 58 °F 63% 29.85 in 12 mi East 11.5 mph - -   Scattered Clouds
12:00 AM 68.0 °F - 59.0 °F 73% 30.02 in 6.2 mi East 11.5 mph - N/A   Partly Cloudy
1:00 AM 68.0 °F - 57.2 °F 68% 30.01 in - ENE 8.1 mph - N/A   Clear
2:00 AM 66.2 °F - 57.2 °F 73% 29.99 in - East 5.8 mph - N/A   Clear
3:00 AM 67 °F - 56 °F 60% 29.78 in 12 mi East 4.6 mph - -  
3:00 AM 68.0 °F - 57.2 °F 68% 29.98 in - East 4.6 mph - N/A   Clear
4:00 AM 66.2 °F - 57.2 °F 73% 29.99 in - NE 10.4 mph - N/A   Clear
5:00 AM 66.2 °F - 57.2 °F 73% 30.00 in - ENE 8.1 mph - N/A   Clear
6:00 AM 67 °F - 58 °F 64% 29.85 in 12 mi East 9.2 mph - -   Scattered Clouds
6:00 AM 68.0 °F - 57.2 °F 68% 30.02 in - East 9.2 mph - N/A   Clear
7:00 AM 69.8 °F - 59.0 °F 68% 30.04 in - ENE 6.9 mph - N/A   Clear
8:00 AM 73.4 °F - 57.2 °F 57% 30.06 in - ENE 9.2 mph - N/A   Clear
9:00 AM 75 °F - 59 °F 49% 29.89 in 12 mi East 10.4 mph - -  
9:00 AM 75.2 °F - 59.0 °F 57% 30.06 in - East 10.4 mph - N/A   Clear
10:00 AM 80.6 °F 81.1 °F 59.0 °F 48% 30.04 in - ESE 10.4 mph - N/A   Clear
11:00 AM 82.4 °F 82.5 °F 59.0 °F 45% 30.01 in 6.2 mi East 11.5 mph - N/A   Partly Cloudy
12:00 PM 83 °F - 58 °F 32% 29.80 in 12 mi ESE 11.5 mph - -   Partly Cloudy
12:00 PM 82.4 °F 82.0 °F 57.2 °F 42% 29.99 in 6.2 mi ESE 11.5 mph 23.0 mph N/A   Scattered Clouds
1:00 PM 80.6 °F 81.1 °F 59.0 °F 48% 29.96 in 6.2 mi East 11.5 mph 23.0 mph N/A   Scattered Clouds
2:00 PM 82.4 °F 82.0 °F 57.2 °F 42% 29.94 in 6.2 mi East 13.8 mph - N/A   Scattered Clouds
3:00 PM 81 °F - 59 °F 36% 29.75 in 12 mi East 11.5 mph - -   Partly Cloudy
3:00 PM 80.6 °F 81.1 °F 59.0 °F 48% 29.93 in 6.2 mi East 11.5 mph - N/A   Scattered Clouds
4:00 PM 77.0 °F - 57.2 °F 50% 29.94 in 6.2 mi East 12.7 mph - N/A   Scattered Clouds
5:00 PM 71.6 °F - 55.4 °F 57% 29.97 in 6.2 mi East 10.4 mph - N/A   Partly Cloudy
6:00 PM 72 °F - 54 °F 44% 29.88 in 12 mi East 24.2 mph - -   Scattered Clouds
6:00 PM 69.8 °F - 55.4 °F 60% 29.99 in 6.2 mi East 12.7 mph 24.2 mph N/A   Scattered Clouds
7:00 PM 69.8 °F - 57.2 °F 64% 30.01 in 6.2 mi East 11.5 mph - N/A   Partly Cloudy
8:00 PM 68.0 °F - 55.4 °F 64% 30.03 in 6.2 mi East 12.7 mph - N/A   Partly Cloudy
9:00 PM 68 °F - 55 °F 53% 29.88 in 12 mi ESE 11.5 mph - -   Scattered Clouds
9:00 PM 68.0 °F - 55.4 °F 64% 30.04 in - ESE 11.5 mph 24.2 mph N/A   Clear
10:00 PM 68.0 °F - 53.6 °F 60% 30.05 in - ESE 12.7 mph 24.2 mph N/A   Clear
11:00 PM 68.0 °F - 53.6 °F 60% 30.03 in - ESE 10.4 mph - N/A   Clear